Tracking 19792 objects as of 16-Jul-2019
HD Live streaming from Space Station
objects crossing your sky now

METEOR 2-5 DEB

Track METEOR 2-5 DEB now!
10-day predictions


NORAD ID: 39603
Int'l Code: 1979-095CE
Perigee: 843.0 km
Apogee: 862.5 km
Inclination: 81.2 °
Period: 101.8 minutes
Semi major axis: 7223 km
RCS: Unknown
Launch date: October 31, 1979
Source: Commonwealth of Independent States (former USSR) (CIS)
Launch site: PLESETSK MISSILE AND SPACE COMPLEX (PKMTR)

Note: This is SATELLITE DEBRIS
aabbcc
Your satellite tracking list
Your tracking list is empty




NASA's NSSDC Master Catalog

Two Line Element Set (TLE):
1 39603U 79095CE  19195.18964229 +.00000836 +00000-0 +43309-3 0  9996
2 39603 081.2160 157.1445 0013548 118.7200 241.5336 14.14028122284337
Source of the keplerian elements: AFSPC